sat.trackr.live / text

‹ back to catalog

STARLINK-5131

NORAD 53996 · 2022-125AJ

PAYLOAD ACTIVE UNKNOWN

§ Identity

Operator
Country
US
Launch date
2022-10-05
Launch site
AFWTR
Launch vehicle
Mass (kg)
RCS (m²)

Purposes: comms

External: N2YO · Heavens-Above · Gunter

§ Orbital elements

Epoch: 2026-05-24T15:49:29.393472Z

Period
95.44 min
Inclination
53.2156°
Eccentricity
0.0001198
Mean motion
15.08835466 rev/d
Perigee alt
538.9 km
Apogee alt
540.6 km
Semi-major
6,917.9 km
B*
-1.2099e-5
RAAN
232.9168°
Arg perigee
91.8640°
Mean anomaly
268.2490°
Rev number
20,093

§ Raw data

STARLINK-51311 53996U 22125AJ  26144.65936798 -.00000480  00000+0 -12099-4 0  99922 53996  53.2156 232.9168 0001198  91.8640 268.2490 15.08835466200935

JSON: /api/v1/satellites/53996 · /tle

For live sub-satellite position, see the globe view (requires WebGL).

§ Visibility from observer

Set your observer location to see the next 7 days of passes ≥ 10°. The values pass through the URL so the page stays shareable.

No JS? Fill the form by hand. The geolocation button needs JavaScript.